Regional Weather Roundup
Issued by NWS

Home | Current Version | Previous Version | Text Only | Print | Product List | Glossary On
Versions: 1 2 3 4 5 6 7 8 9 10 11 12 13 14 15 16 17 18 19 20 21 22 23 24 25 26 27 28
000
ASUS45 KBOU 311607
RWRCO

WEATHER ROUNDUP FOR COLORADO
NATIONAL WEATHER SERVICE DENVER/BOULDER CO
1000 AM MDT FRI OCT 31 2014

NOTE: "FAIR" INDICATES FEW OR NO CLOUDS BELOW 12000 FEET WITH NO
SIGNIFICANT WEATHER AND/OR OBSTRUCTIONS TO VISIBILITY.

COZ001>005-013-030-031-311700-
...NORTHWEST COLORADO...

CITY           SKY/WX    TMP DP  RH WIND       PRES   REMARKS
CRAIG          SUNNY     43  32  65 NW5       30.24F
HAYDEN         SUNNY     45  25  45 E14       30.24F
MEEKER         MOSUNNY   46  27  47 CALM      30.24F
MOUNT WERNER   NOT AVBL
STEAMBOAT SPGS SUNNY     37  28  72 CALM      30.27F
WALDEN         SUNNY     34  25  69 CALM      30.31F
$$

COZ006>008-011-311700-
...WEST CENTRAL VALLEYS...

CITY           SKY/WX    TMP DP  RH WIND       PRES   REMARKS
GRAND JUNCTION PTSUNNY   54  26  34 S12       30.20S
MONTROSE       PTSUNNY   44  26  49 CALM      30.28S
EAGLE          MOSUNNY   36  25  64 CALM      30.37F
RIFLE          MOSUNNY   43  25  49 CALM      30.26F
DELTA          PTSUNNY   45  30  55 SW7       30.27R
NUCLA          PTSUNNY   52  23  32 E3        30.31S
$$

COZ017>023-064>068-311700-
...SOUTHWEST COLORADO...

CITY           SKY/WX    TMP DP  RH WIND       PRES   REMARKS
DURANGO        CLOUDY    42  29  59 CALM      30.38R
CORTEZ         SUNNY     61  23  23 E7        30.30S
PAGOSA SPRINGS CLOUDY    47  21  35 CALM      30.43S
TELLURIDE      PTSUNNY   51  19  27 E10G18    30.41F
WOLF CREEK PAS MOSUNNY   36  16  44 S15G22    30.55S
$$

COZ009-010-012-014-032>034-037-058>063-311700-
...CENTRAL COLORADO...

CITY           SKY/WX    TMP DP  RH WIND       PRES   REMARKS
ASPEN          SUNNY     44  18  35 CALM      30.32S
BUENA VISTA    SUNNY     38  22  50 CALM      30.40F
COPPER MTN     SUNNY     46   1  15 S12G17    30.51S
BERTHOUD PASS  FAIR      36  32  87 W17G26    30.52F
COTTONWOOD PAS SUNNY     37  21  52 CALM      30.44S
GUNNISON       MOSUNNY   30  16  55 CALM      30.43F
KREMMLING      SUNNY     32  27  80 CALM      30.38F
LEADVILLE      SUNNY     34  18  52 CALM      30.42F
MONARCH PASS   SUNNY     36  14  41 SW17      30.62S
SALIDA         SUNNY     38  23  54 CALM      30.47F
SUNLIGHT       MOSUNNY   45  18  33 CALM      30.46R
WILKERSON PASS NOT AVBL
$$

COZ069>075-311700-
...SAN LUIS VALLEY/SANGRE DE CRISTO MOUNTAINS...

CITY           SKY/WX    TMP DP  RH WIND       PRES   REMARKS
ALAMOSA        MOSUNNY   41  21  44 SW5       30.43S
LA VETA PASS   SUNNY     37  21  52 S9G16     30.47S
SAGUACHE       MOSUNNY   43  19  39 CALM      30.45S
$$

COZ035-036-038>040-311700-
...NORTHERN COLORADO FRONT RANGE...

CITY           SKY/WX    TMP DP  RH WIND       PRES   REMARKS
DENVER INTL AP PTSUNNY   40  28  62 W7        30.32F
DMNS CITY PARK   N/A     43  29  58 N5        30.32F
AURORA         PTSUNNY   41  28  61 W5        30.32F
FRONT RANGE AP NOT AVBL
ERIE MUNI ARPT PTSUNNY   38  32  78 CALM      30.33S
BOULDER MUN AP PTSUNNY   37  30  75 CALM      30.32F
CENTENNIAL     PTSUNNY   42  28  57 CALM      30.31F
BROOMFIELD     PTSUNNY   37  28  70 N5        30.32F
FORT COLLINS   PTSUNNY   37  28  70 N8        30.34F
LONGMONT       PTSUNNY   41  32  69 NE5       30.34F
$$

COZ041-046-047-076>085-087-088-311700-
...PIKES PEAK/PALMER DIVIDE AND SOUTHERN FOOTHILLS...

CITY           SKY/WX    TMP DP  RH WIND       PRES   REMARKS
COLO. SPRINGS  PTSUNNY   36  28  73 SE8       30.41F
A. F. ACADEMY  SUNNY     36  26  68 SE15      30.38F
ELLICOTT       MOSUNNY   38  28  67 S16       30.38F
FALCON         PTSUNNY   35  28  78 S13       30.40F WCI  26
FORT CARSON    MOSUNNY   37  28  71 VRB7      30.39F
LIMON          SUNNY     38  29  70 S23G30    30.39F
MONUMENT HILL  SUNNY     36  27  69 S20G26    30.33F
TRINIDAD       SUNNY     49  26  41 NE5       30.37F
$$

COZ042>045-048>051-090-091-311700-
...NORTHEAST COLORADO...

CITY           SKY/WX    TMP DP  RH WIND       PRES   REMARKS
GREELEY ARPT   PTSUNNY   41  27  56 S8        30.34F
AKRON          SUNNY     38  29  70 SE22G30   30.39F
BURLINGTON     SUNNY     39  29  67 SE14      30.46F
WRAY           CLOUDY    34  31  88 SE12      30.47F WCI  26
STERLING       NOT AVBL
HOLYOKE        FOG       34  32  93 SE9       30.47S VSB 1/4 WCI  26
FORT MORGAN    SUNNY     42  30  62 SE12      30.37F
$$

COZ086-089-092>099-311700-
...SOUTHEAST COLORADO...

CITY           SKY/WX    TMP DP  RH WIND       PRES   REMARKS
PUEBLO         MOSUNNY   40  29  64 E9        30.40S
LA JUNTA       SUNNY     45  30  55 E18       30.42F
LAMAR          SUNNY     42  30  62 E12       30.45F
SPRINGFIELD      N/A     42  30  62 S12       30.46F
$$



USA.gov is the U.S. government's official web portal to all federal, state and local government web resources and services.